PGT5091 HEGN-LTAI

Flight info

Callsign PGT5091
Flight time N/A
Altitude 38000
Route SOLOX1B SOLOX V603 GIDID DCT KAPIT L677 CVO A16 RASDA M855 TOMBI
Aircraft A20N/M-SDE2E3FGHIRWXY/LB1

Departure

Time 2026-04-28 12:39
Airport Hurghada International Airport (HEGN)

Arrival

Time N/A
Airport Antalya International Airport (LTAI)
Time Latitude Longitude Altitude Speed Heading
2026-04-28 12:28 27.17558 33.80721 61 ft 0 kts 75°
2026-04-28 12:32 27.17558 33.80720 61 ft 2 kts 75°
2026-04-28 12:32 27.17555 33.80707 78 ft 2 kts 75°
2026-04-28 12:32 27.17552 33.80694 71 ft 2 kts 75°
2026-04-28 12:33 27.17549 33.80681 59 ft 2 kts 75°
2026-04-28 12:33 27.17546 33.80668 57 ft 2 kts 75°
2026-04-28 12:33 27.17543 33.80656 54 ft 2 kts 75°
2026-04-28 12:33 27.17540 33.80643 54 ft 2 kts 75°
2026-04-28 12:34 27.17538 33.80630 55 ft 2 kts 99°
2026-04-28 12:34 27.17540 33.80621 54 ft 2 kts 124°
2026-04-28 12:34 27.17548 33.80614 53 ft 0 kts 165°
2026-04-28 12:35 27.17510 33.80616 57 ft 9 kts 210°
2026-04-28 12:35 27.17481 33.80555 56 ft 9 kts 255°
2026-04-28 12:36 27.17456 33.80466 58 ft 15 kts 252°
2026-04-28 12:36 27.17408 33.80406 52 ft 8 kts 172°
2026-04-28 12:36 27.17323 33.80428 52 ft 17 kts 162°
2026-04-28 12:36 27.17189 33.80471 50 ft 23 kts 163°
2026-04-28 12:37 27.17031 33.80518 53 ft 25 kts 166°
2026-04-28 12:37 27.16914 33.80539 54 ft 13 kts 198°
2026-04-28 12:37 27.16876 33.80445 50 ft 16 kts 257°
2026-04-28 12:37 27.16912 33.80379 48 ft 10 kts 329°
2026-04-28 12:38 27.16941 33.80370 48 ft 11 kts 345°
2026-04-28 12:38 27.17225 33.80285 53 ft 72 kts 345°
2026-04-28 12:38 27.17896 33.80086 53 ft 126 kts 345°
2026-04-28 12:38 27.18872 33.79789 228 ft 150 kts 349°
2026-04-28 12:39 27.19892 33.79471 650 ft 155 kts 343°
2026-04-28 12:39 27.20926 33.79115 1175 ft 156 kts 343°
2026-04-28 12:39 27.22001 33.78732 1615 ft 175 kts 345°
2026-04-28 12:39 27.23241 33.78323 1940 ft 197 kts 344°
2026-04-28 12:40 27.24666 33.77858 2185 ft 228 kts 344°
2026-04-28 12:40 27.26231 33.77351 2817 ft 239 kts 343°
2026-04-28 12:40 27.27886 33.76815 3498 ft 250 kts 341°
2026-04-28 12:40 27.29573 33.76267 4345 ft 252 kts 341°
2026-04-28 12:41 27.31242 33.75727 5203 ft 255 kts 341°
2026-04-28 12:41 27.32969 33.75168 5949 ft 260 kts 342°
2026-04-28 12:41 27.34762 33.74792 6775 ft 263 kts 352°
2026-04-28 12:41 27.36596 33.74634 7577 ft 267 kts 354°
2026-04-28 12:42 27.38477 33.74518 8338 ft 273 kts 354°
2026-04-28 12:42 27.40392 33.74405 9065 ft 280 kts 355°
2026-04-28 12:42 27.42352 33.74289 9887 ft 283 kts 354°
2026-04-28 12:42 27.44361 33.74166 10433 ft 297 kts 354°
2026-04-28 12:43 27.46497 33.74031 10740 ft 318 kts 354°
2026-04-28 12:43 27.48778 33.73888 11043 ft 337 kts 354°
2026-04-28 12:43 27.51162 33.73740 11477 ft 348 kts 354°
2026-04-28 12:43 27.53598 33.73590 12153 ft 352 kts 354°
2026-04-28 12:44 27.56048 33.73438 12886 ft 355 kts 355°
2026-04-28 12:44 27.58540 33.73279 13538 ft 361 kts 354°
2026-04-28 12:44 27.61057 33.73020 14162 ft 365 kts 351°
2026-04-28 12:44 27.63589 33.72664 14807 ft 369 kts 349°
2026-04-28 12:45 27.66140 33.72256 15431 ft 373 kts 349°
2026-04-28 12:45 27.68724 33.71827 16058 ft 377 kts 348°
2026-04-28 12:45 27.71337 33.71394 16690 ft 381 kts 348°
2026-04-28 12:45 27.73970 33.70964 17320 ft 385 kts 348°
2026-04-28 12:46 27.76640 33.70537 17963 ft 389 kts 348°
2026-04-28 12:46 27.79339 33.70111 18556 ft 393 kts 348°
2026-04-28 12:46 27.82026 33.69692 19112 ft 396 kts 348°
2026-04-28 12:46 27.84771 33.69265 19683 ft 400 kts 348°
2026-04-28 12:47 27.87538 33.68835 20255 ft 403 kts 348°
2026-04-28 12:47 27.90359 33.68396 20830 ft 406 kts 348°
2026-04-28 12:47 27.93133 33.67965 21385 ft 409 kts 348°
2026-04-28 12:47 27.95961 33.67524 21918 ft 413 kts 348°
2026-04-28 12:48 27.98822 33.67077 22447 ft 416 kts 347°
2026-04-28 12:48 28.01733 33.66622 22979 ft 419 kts 347°
2026-04-28 12:48 28.04598 33.66174 23505 ft 422 kts 347°
2026-04-28 12:48 28.07522 33.65717 23917 ft 426 kts 347°
2026-04-28 12:49 28.10470 33.65256 24387 ft 428 kts 347°
2026-04-28 12:49 28.13428 33.64793 24827 ft 430 kts 347°
2026-04-28 12:49 28.16395 33.64300 25278 ft 431 kts 344°
2026-04-28 12:49 28.19300 33.63489 25722 ft 428 kts 337°
2026-04-28 12:50 28.22051 33.62244 26165 ft 424 kts 328°
2026-04-28 12:50 28.24575 33.60550 26589 ft 421 kts 320°
2026-04-28 12:50 28.26921 33.58560 27000 ft 421 kts 317°
2026-04-28 12:50 28.29197 33.56465 27428 ft 422 kts 316°
2026-04-28 12:51 28.31444 33.54307 27835 ft 424 kts 315°
2026-04-28 12:51 28.33687 33.52117 28255 ft 426 kts 315°
2026-04-28 12:51 28.35939 33.49914 28590 ft 428 kts 315°
2026-04-28 12:51 28.38205 33.47707 28961 ft 430 kts 315°
2026-04-28 12:52 28.40486 33.45497 29359 ft 431 kts 315°
2026-04-28 12:52 28.42773 33.43291 29891 ft 429 kts 315°
2026-04-28 12:52 28.45017 33.41134 30359 ft 427 kts 315°
2026-04-28 12:52 28.47307 33.38935 30816 ft 425 kts 315°
2026-04-28 12:53 28.49558 33.36773 31301 ft 421 kts 314°
2026-04-28 12:53 28.51791 33.34626 31764 ft 419 kts 314°
2026-04-28 12:53 28.54010 33.32491 32175 ft 417 kts 314°
2026-04-28 12:53 28.56216 33.30365 32581 ft 416 kts 313°
2026-04-28 12:54 28.58425 33.28235 32994 ft 414 kts 313°
2026-04-28 12:54 28.60611 33.26126 33400 ft 412 kts 313°
2026-04-28 12:54 28.62791 33.24022 33791 ft 410 kts 313°
2026-04-28 12:54 28.64958 33.21928 34126 ft 408 kts 312°
2026-04-28 12:55 28.67122 33.19837 34441 ft 408 kts 312°
2026-04-28 12:55 28.69283 33.17744 34652 ft 409 kts 312°
2026-04-28 12:55 28.71446 33.15650 34926 ft 408 kts 312°
2026-04-28 12:55 28.73609 33.13557 35238 ft 406 kts 312°
2026-04-28 12:56 28.75726 33.11508 35534 ft 403 kts 312°
2026-04-28 12:56 28.77886 33.09416 35827 ft 401 kts 312°
2026-04-28 12:56 28.80007 33.07360 36080 ft 400 kts 311°
2026-04-28 12:56 28.82124 33.05306 36311 ft 399 kts 311°
2026-04-28 12:57 28.84241 33.03250 36533 ft 399 kts 311°
2026-04-28 12:57 28.86322 33.01228 36748 ft 398 kts 311°
2026-04-28 12:57 28.88456 32.99154 36968 ft 397 kts 311°
2026-04-28 12:57 28.90553 32.97114 37186 ft 396 kts 311°
2026-04-28 12:58 28.92620 32.95104 37401 ft 395 kts 311°
2026-04-28 12:58 28.94706 32.93073 37619 ft 394 kts 311°
2026-04-28 12:58 28.96788 32.91046 37818 ft 393 kts 311°
2026-04-28 12:58 28.98866 32.89020 37941 ft 393 kts 311°
2026-04-28 12:59 29.00949 32.86987 37951 ft 393 kts 311°
2026-04-28 12:59 29.05104 32.82932 37960 ft 392 kts 311°
2026-04-28 13:00 29.09253 32.78879 37965 ft 392 kts 311°
2026-04-28 13:00 29.13390 32.74833 37966 ft 392 kts 310°
2026-04-28 13:01 29.17529 32.70780 37976 ft 392 kts 310°
2026-04-28 13:01 29.21672 32.66719 37974 ft 392 kts 310°
2026-04-28 13:02 29.25808 32.62661 37974 ft 392 kts 310°
2026-04-28 13:02 29.29577 32.58280 37983 ft 382 kts 303°
2026-04-28 13:03 29.32921 32.53572 37991 ft 380 kts 301°
2026-04-28 13:03 29.36184 32.48803 38000 ft 380 kts 301°
2026-04-28 13:04 29.39444 32.44016 37999 ft 380 kts 301°
2026-04-28 13:04 29.42690 32.39261 38007 ft 380 kts 301°
2026-04-28 13:05 29.45960 32.34479 38027 ft 380 kts 301°
2026-04-28 13:05 29.49220 32.29709 38010 ft 379 kts 301°
2026-04-28 13:06 29.52476 32.24939 38022 ft 379 kts 301°
2026-04-28 13:06 29.55726 32.20176 38024 ft 379 kts 301°
2026-04-28 13:07 29.58974 32.15405 38023 ft 379 kts 301°
2026-04-28 13:07 29.62219 32.10631 38020 ft 379 kts 301°
2026-04-28 13:08 29.65445 32.05880 38036 ft 379 kts 301°
2026-04-28 13:08 29.68685 32.01104 38028 ft 379 kts 301°
2026-04-28 13:09 29.71922 31.96328 38032 ft 379 kts 301°
2026-04-28 13:09 29.75157 31.91549 38077 ft 379 kts 301°
2026-04-28 13:10 29.78568 31.86894 38033 ft 387 kts 308°
2026-04-28 13:10 29.83008 31.83140 38028 ft 404 kts 323°
2026-04-28 13:11 29.88196 31.80465 38020 ft 411 kts 328°
2026-04-28 13:11 29.93546 31.78066 38022 ft 413 kts 329°
2026-04-28 13:12 29.98896 31.75695 38022 ft 412 kts 329°
2026-04-28 13:12 30.04265 31.73268 38022 ft 411 kts 328°
2026-04-28 13:13 30.08678 31.71249 38020 ft 412 kts 329°
2026-04-28 13:13 30.14027 31.68793 38017 ft 413 kts 329°
2026-04-28 13:14 30.19363 31.66341 38012 ft 413 kts 329°
2026-04-28 13:14 30.24703 31.63887 38006 ft 413 kts 329°
2026-04-28 13:15 30.30034 31.61434 37982 ft 413 kts 329°
2026-04-28 13:15 30.35378 31.58972 37990 ft 413 kts 329°
2026-04-28 13:16 30.40716 31.56509 37982 ft 414 kts 329°
2026-04-28 13:16 30.46071 31.54036 37984 ft 414 kts 329°
2026-04-28 13:17 30.51426 31.51561 37979 ft 414 kts 329°
2026-04-28 13:17 30.56775 31.49085 37981 ft 414 kts 329°
2026-04-28 13:18 30.62100 31.46617 37975 ft 415 kts 329°
2026-04-28 13:18 30.67472 31.44124 37972 ft 416 kts 329°
2026-04-28 13:19 30.72843 31.41629 37974 ft 416 kts 329°
2026-04-28 13:19 30.78224 31.39127 37971 ft 416 kts 329°
2026-04-28 13:20 30.83593 31.36627 37974 ft 416 kts 329°
2026-04-28 13:20 30.88964 31.34123 37985 ft 416 kts 330°
2026-04-28 13:21 30.94353 31.31606 37978 ft 418 kts 330°
2026-04-28 13:21 30.99754 31.29082 37981 ft 418 kts 330°
2026-04-28 13:22 31.05164 31.26551 37988 ft 418 kts 330°
2026-04-28 13:22 31.10558 31.24025 37988 ft 418 kts 330°
2026-04-28 13:23 31.15945 31.21498 38007 ft 418 kts 330°
2026-04-28 13:23 31.21352 31.18958 37993 ft 419 kts 330°
2026-04-28 13:24 31.27053 31.17139 38007 ft 430 kts 340°
2026-04-28 13:24 31.32974 31.15928 38004 ft 432 kts 342°
2026-04-28 13:25 31.38916 31.14840 38005 ft 433 kts 342°
2026-04-28 13:25 31.44872 31.13752 38006 ft 433 kts 343°
2026-04-28 13:26 31.50812 31.12648 38012 ft 433 kts 342°
2026-04-28 13:26 31.56820 31.11731 38013 ft 437 kts 346°
2026-04-28 13:27 31.62876 31.11106 38012 ft 438 kts 347°
2026-04-28 13:27 31.68960 31.10511 38013 ft 438 kts 347°
2026-04-28 13:28 31.75025 31.09886 38012 ft 437 kts 347°
2026-04-28 13:28 31.81085 31.09240 38012 ft 437 kts 347°
2026-04-28 13:29 31.87147 31.08586 38009 ft 437 kts 347°
2026-04-28 13:29 31.93204 31.07933 37993 ft 437 kts 347°
2026-04-28 13:30 31.99266 31.07279 38010 ft 437 kts 347°
2026-04-28 13:30 32.05324 31.06624 38010 ft 437 kts 347°
2026-04-28 13:31 32.14415 31.05626 38022 ft 437 kts 347°
2026-04-28 13:31 32.20472 31.04958 38006 ft 437 kts 347°
2026-04-28 13:32 32.26526 31.04291 38012 ft 437 kts 347°
2026-04-28 13:32 32.32591 31.03622 38005 ft 437 kts 347°
2026-04-28 13:33 32.38645 31.02953 38033 ft 437 kts 347°
2026-04-28 13:33 32.44699 31.02284 38005 ft 437 kts 347°
2026-04-28 13:34 32.50769 31.01612 38004 ft 437 kts 347°
2026-04-28 13:34 32.56828 31.00940 38004 ft 437 kts 347°
2026-04-28 13:35 32.62892 31.00267 38019 ft 437 kts 347°
2026-04-28 13:35 32.68942 30.99594 38001 ft 438 kts 347°
2026-04-28 13:36 32.75012 30.98918 38002 ft 438 kts 347°
2026-04-28 13:36 32.81075 30.98242 37999 ft 438 kts 347°
2026-04-28 13:37 32.87140 30.97565 38017 ft 438 kts 348°
2026-04-28 13:37 32.93206 30.96886 38008 ft 438 kts 348°
2026-04-28 13:38 32.99282 30.96206 37996 ft 438 kts 348°
2026-04-28 13:38 33.05347 30.95527 37997 ft 438 kts 348°
2026-04-28 13:39 33.11460 30.94901 38004 ft 439 kts 350°
2026-04-28 13:39 33.17589 30.94620 37994 ft 441 kts 352°
2026-04-28 13:40 33.23731 30.94446 37994 ft 441 kts 352°
2026-04-28 13:40 33.29855 30.94253 37992 ft 441 kts 352°
2026-04-28 13:41 33.35951 30.94033 37995 ft 440 kts 352°
2026-04-28 13:41 33.42123 30.93800 37992 ft 440 kts 352°
2026-04-28 13:42 33.48249 30.93567 37988 ft 440 kts 352°
2026-04-28 13:42 33.54378 30.93334 37989 ft 441 kts 352°
2026-04-28 13:43 33.60473 30.93103 37985 ft 441 kts 352°
2026-04-28 13:43 33.66604 30.92871 37979 ft 441 kts 352°
2026-04-28 13:44 33.72738 30.92639 37979 ft 441 kts 352°
2026-04-28 13:44 33.78874 30.92406 38000 ft 441 kts 352°
2026-04-28 13:45 33.85011 30.92172 37977 ft 441 kts 352°
2026-04-28 13:45 33.91150 30.91938 37977 ft 441 kts 352°
2026-04-28 13:46 33.97284 30.91685 37974 ft 441 kts 352°
2026-04-28 13:46 34.03411 30.91353 37983 ft 441 kts 352°
2026-04-28 13:47 34.09544 30.90999 37974 ft 441 kts 352°
2026-04-28 13:47 34.15678 30.90651 37972 ft 441 kts 352°
2026-04-28 13:48 34.21822 30.90308 37968 ft 441 kts 352°
2026-04-28 13:48 34.27954 30.89983 37968 ft 441 kts 352°
2026-04-28 13:49 34.34095 30.89684 37963 ft 441 kts 352°
2026-04-28 13:49 34.40235 30.89388 37963 ft 441 kts 352°
2026-04-28 13:50 34.46370 30.89089 37970 ft 441 kts 352°
2026-04-28 13:50 34.52509 30.88787 37966 ft 442 kts 352°
2026-04-28 13:51 34.58661 30.88484 37962 ft 442 kts 352°
2026-04-28 13:51 34.64806 30.88213 37964 ft 443 kts 353°
2026-04-28 13:53 34.82936 30.87634 37951 ft 443 kts 353°
2026-04-28 13:53 34.89136 30.87430 37947 ft 443 kts 353°
2026-04-28 13:54 34.90133 30.87397 37950 ft 443 kts 353°
2026-04-28 13:54 35.00808 30.87041 37949 ft 443 kts 353°
2026-04-28 13:55 35.06982 30.86836 37950 ft 443 kts 353°
2026-04-28 13:55 35.13180 30.86630 37947 ft 443 kts 353°
2026-04-28 13:56 35.19299 30.86426 37947 ft 443 kts 354°
2026-04-28 13:56 35.25498 30.86219 37947 ft 443 kts 354°
2026-04-28 13:57 35.31657 30.86012 37941 ft 443 kts 354°
2026-04-28 13:57 35.37826 30.85805 37946 ft 443 kts 354°
2026-04-28 13:58 35.43984 30.85599 37938 ft 443 kts 354°
2026-04-28 13:58 35.50147 30.85392 37938 ft 443 kts 354°
2026-04-28 13:59 35.56308 30.85184 37508 ft 442 kts 354°
2026-04-28 13:59 35.59394 30.85080 36524 ft 445 kts 354°
2026-04-28 13:59 35.62456 30.84954 35518 ft 447 kts 354°
2026-04-28 14:00 35.65602 30.84774 34573 ft 448 kts 354°
2026-04-28 14:00 35.68740 30.84583 33296 ft 455 kts 355°
2026-04-28 14:00 35.71933 30.84387 31887 ft 463 kts 355°
2026-04-28 14:00 35.75099 30.84196 30984 ft 460 kts 355°
2026-04-28 14:01 35.78308 30.84004 30275 ft 451 kts 355°
2026-04-28 14:01 35.81388 30.83819 29371 ft 447 kts 355°
2026-04-28 14:01 35.84510 30.83631 28468 ft 442 kts 355°
2026-04-28 14:01 35.87528 30.83450 27935 ft 429 kts 355°
2026-04-28 14:02 35.93708 30.83081 27600 ft 386 kts 355°